Year,Month,Day,Hour,Minute,Value (Times are PST for temperature in C)
2011,08,23,00,00,13.70
2011,08,23,00,01,13.70
2011,08,23,00,02,13.70
2011,08,23,00,03,13.70
2011,08,23,00,04,13.70
2011,08,23,00,05,13.70
2011,08,23,00,06,13.70
2011,08,23,00,07,13.70
2011,08,23,00,08,13.70
2011,08,23,00,09,13.70
2011,08,23,00,10,13.60
2011,08,23,00,11,13.50
2011,08,23,00,12,13.50
2011,08,23,00,13,13.50
2011,08,23,00,14,13.50
2011,08,23,00,15,13.50
2011,08,23,00,16,13.50
2011,08,23,00,17,13.50
2011,08,23,00,18,13.50
2011,08,23,00,19,13.40
2011,08,23,00,20,13.40
2011,08,23,00,21,13.40
2011,08,23,00,22,13.40
2011,08,23,00,23,13.40
2011,08,23,00,24,13.30
2011,08,23,00,25,13.40
2011,08,23,00,26,13.40
2011,08,23,00,27,13.40
2011,08,23,00,28,13.40
2011,08,23,00,29,13.40
2011,08,23,00,30,13.40
2011,08,23,00,31,13.40
2011,08,23,00,32,13.40
2011,08,23,00,33,13.40
2011,08,23,00,34,13.40
2011,08,23,00,35,13.40
2011,08,23,00,36,13.40
2011,08,23,00,37,13.40
2011,08,23,00,38,13.40
2011,08,23,00,39,13.30
2011,08,23,00,40,13.30
2011,08,23,00,41,13.40
2011,08,23,00,42,13.40
2011,08,23,00,43,13.40
2011,08,23,00,44,13.40
2011,08,23,00,45,13.40
2011,08,23,00,46,13.40
2011,08,23,00,47,13.40
2011,08,23,00,48,13.40
2011,08,23,00,49,13.40
2011,08,23,00,50,13.40
2011,08,23,00,51,13.40
2011,08,23,00,52,13.30
2011,08,23,00,53,13.30
2011,08,23,00,54,13.30
2011,08,23,00,55,13.30
2011,08,23,00,56,13.30
2011,08,23,00,57,13.30
2011,08,23,00,58,13.30
2011,08,23,00,59,13.20
2011,08,23,01,00,13.30
2011,08,23,01,01,13.30
2011,08,23,01,02,13.30
2011,08,23,01,03,13.30
2011,08,23,01,04,13.30
2011,08,23,01,05,13.40
2011,08,23,01,06,13.40
2011,08,23,01,07,13.40
2011,08,23,01,08,13.40
2011,08,23,01,09,13.40
2011,08,23,01,10,13.30
2011,08,23,01,11,13.30
2011,08,23,01,12,13.30
2011,08,23,01,13,13.30
2011,08,23,01,14,13.40
2011,08,23,01,15,13.40
2011,08,23,01,16,13.40
2011,08,23,01,17,13.40
2011,08,23,01,18,13.40
2011,08,23,01,19,13.40
2011,08,23,01,20,13.40
2011,08,23,01,21,13.40
2011,08,23,01,22,13.30
2011,08,23,01,23,13.30
2011,08,23,01,24,13.30
2011,08,23,01,25,13.30
2011,08,23,01,26,13.30
2011,08,23,01,27,13.30
2011,08,23,01,28,13.20
2011,08,23,01,29,13.20
2011,08,23,01,30,13.20
2011,08,23,01,31,13.20
2011,08,23,01,32,13.20
2011,08,23,01,33,13.20
2011,08,23,01,34,13.20
2011,08,23,01,35,13.30
2011,08,23,01,36,13.30
2011,08,23,01,37,13.30
2011,08,23,01,38,13.30
2011,08,23,01,39,13.20
2011,08,23,01,40,13.20
2011,08,23,01,41,13.20
2011,08,23,01,42,13.20
2011,08,23,01,43,13.20
2011,08,23,01,44,13.20
2011,08,23,01,45,13.20
2011,08,23,01,46,13.10
2011,08,23,01,47,13.10
2011,08,23,01,48,13.10
2011,08,23,01,49,13.10
2011,08,23,01,50,13.10
2011,08,23,01,51,13.10
2011,08,23,01,52,13.10
2011,08,23,01,53,13.10
2011,08,23,01,54,13.10
2011,08,23,01,55,13.20
2011,08,23,01,56,13.20
2011,08,23,01,57,13.20
2011,08,23,01,58,13.20
2011,08,23,01,59,13.20
2011,08,23,02,00,13.20
2011,08,23,02,01,13.20
2011,08,23,02,02,13.30
2011,08,23,02,03,13.20
2011,08,23,02,04,13.20
2011,08,23,02,05,13.20
2011,08,23,02,06,13.20
2011,08,23,02,07,13.20
2011,08,23,02,08,13.20
2011,08,23,02,09,13.20
2011,08,23,02,10,13.20
2011,08,23,02,11,13.20
2011,08,23,02,12,13.10
2011,08,23,02,13,13.10
2011,08,23,02,14,13.10
2011,08,23,02,15,13.20
2011,08,23,02,16,13.20
2011,08,23,02,17,13.20
2011,08,23,02,18,13.20
2011,08,23,02,19,13.20
2011,08,23,02,20,13.20
2011,08,23,02,21,13.20
2011,08,23,02,22,13.20
2011,08,23,02,23,13.10
2011,08,23,02,24,13.10
2011,08,23,02,25,13.10
2011,08,23,02,26,13.10
2011,08,23,02,27,13.10
2011,08,23,02,28,13.10
2011,08,23,02,29,13.10
2011,08,23,02,30,13.10
2011,08,23,02,31,13.10
2011,08,23,02,32,13.10
2011,08,23,02,33,13.10
2011,08,23,02,34,13.10
2011,08,23,02,35,13.10
2011,08,23,02,36,13.10
2011,08,23,02,37,13.10
2011,08,23,02,38,13.00
2011,08,23,02,39,13.00
2011,08,23,02,40,13.00
2011,08,23,02,41,13.00
2011,08,23,02,42,13.00
2011,08,23,02,43,13.00
2011,08,23,02,44,13.00
2011,08,23,02,45,13.00
2011,08,23,02,46,13.00
2011,08,23,02,47,13.00
2011,08,23,02,48,13.10
2011,08,23,02,49,13.10
2011,08,23,02,50,13.10
2011,08,23,02,51,13.10
2011,08,23,02,52,13.00
2011,08,23,02,53,13.00
2011,08,23,02,54,12.90
2011,08,23,02,55,12.90
2011,08,23,02,56,12.90
2011,08,23,02,57,12.80
2011,08,23,02,58,12.80
2011,08,23,02,59,12.80
2011,08,23,03,00,12.80
2011,08,23,03,01,12.80
2011,08,23,03,02,12.80
2011,08,23,03,03,12.90
2011,08,23,03,04,12.90
2011,08,23,03,05,12.90
2011,08,23,03,06,12.90
2011,08,23,03,07,12.90
2011,08,23,03,08,12.90
2011,08,23,03,09,12.90
2011,08,23,03,10,12.90
2011,08,23,03,11,12.90
2011,08,23,03,12,12.90
2011,08,23,03,13,12.90
2011,08,23,03,14,12.90
2011,08,23,03,15,12.90
2011,08,23,03,16,12.80
2011,08,23,03,17,12.80
2011,08,23,03,18,12.80
2011,08,23,03,19,12.80
2011,08,23,03,20,12.80
2011,08,23,03,21,12.80
2011,08,23,03,22,12.80
2011,08,23,03,23,12.80
2011,08,23,03,24,12.80
2011,08,23,03,25,12.80
2011,08,23,03,26,12.80
2011,08,23,03,27,12.70
2011,08,23,03,28,12.70
2011,08,23,03,29,12.60
2011,08,23,03,30,12.60
2011,08,23,03,31,12.60
2011,08,23,03,32,12.60
2011,08,23,03,33,12.60
2011,08,23,03,34,12.60
2011,08,23,03,35,12.60
2011,08,23,03,36,12.60
2011,08,23,03,37,12.60
2011,08,23,03,38,12.60
2011,08,23,03,39,12.60
2011,08,23,03,40,12.70
2011,08,23,03,41,12.70
2011,08,23,03,42,12.80
2011,08,23,03,43,12.80
2011,08,23,03,44,12.80
2011,08,23,03,45,12.80
2011,08,23,03,46,12.80
2011,08,23,03,47,12.80
2011,08,23,03,48,12.80
2011,08,23,03,49,12.80
2011,08,23,03,50,12.80
2011,08,23,03,51,12.80
2011,08,23,03,52,12.80
2011,08,23,03,53,12.80
2011,08,23,03,54,12.80
2011,08,23,03,55,12.80
2011,08,23,03,56,12.80
2011,08,23,03,57,12.80
2011,08,23,03,58,12.90
2011,08,23,03,59,12.90
2011,08,23,04,00,12.90
2011,08,23,04,01,12.90
2011,08,23,04,02,12.90
2011,08,23,04,03,12.90
2011,08,23,04,04,12.90
2011,08,23,04,05,13.00
2011,08,23,04,06,13.00
2011,08,23,04,07,13.00
2011,08,23,04,08,13.00
2011,08,23,04,09,13.00
2011,08,23,04,10,13.00
2011,08,23,04,11,13.00
2011,08,23,04,12,13.10
2011,08,23,04,13,13.10
2011,08,23,04,14,13.20
2011,08,23,04,15,13.20
2011,08,23,04,16,13.30
2011,08,23,04,17,13.30
2011,08,23,04,18,13.30
2011,08,23,04,19,13.20
2011,08,23,04,20,13.20
2011,08,23,04,21,13.20
2011,08,23,04,22,13.20
2011,08,23,04,23,13.20
2011,08,23,04,24,13.20
2011,08,23,04,25,13.20
2011,08,23,04,26,13.20
2011,08,23,04,27,13.20
2011,08,23,04,28,13.20
2011,08,23,04,29,13.20
2011,08,23,04,30,13.20
2011,08,23,04,31,13.20
2011,08,23,04,32,13.20
2011,08,23,04,33,13.20
2011,08,23,04,34,13.30
2011,08,23,04,35,13.30
2011,08,23,04,36,13.30
2011,08,23,04,37,13.20
2011,08,23,04,38,13.20
2011,08,23,04,39,13.20
2011,08,23,04,40,13.20
2011,08,23,04,41,13.30
2011,08,23,04,42,13.40
2011,08,23,04,43,13.40
2011,08,23,04,44,13.40
2011,08,23,04,45,13.30
2011,08,23,04,46,13.30
2011,08,23,04,47,13.40
2011,08,23,04,48,13.40
2011,08,23,04,49,13.30
2011,08,23,04,50,13.30
2011,08,23,04,51,13.30
2011,08,23,04,52,13.30
2011,08,23,04,53,13.30
2011,08,23,04,54,13.30
2011,08,23,04,55,13.30
2011,08,23,04,56,13.30
2011,08,23,04,57,13.30
2011,08,23,04,58,13.20
2011,08,23,04,59,13.20
2011,08,23,05,00,13.10
2011,08,23,05,01,13.10
2011,08,23,05,02,13.10
2011,08,23,05,03,13.10
2011,08,23,05,04,13.10
2011,08,23,05,05,13.10
2011,08,23,05,06,13.10
2011,08,23,05,07,13.10
2011,08,23,05,08,13.10
2011,08,23,05,09,13.10
2011,08,23,05,10,13.10
2011,08,23,05,11,13.10
2011,08,23,05,12,13.00
2011,08,23,05,13,13.00
2011,08,23,05,14,12.90
2011,08,23,05,15,12.90
2011,08,23,05,16,12.90
2011,08,23,05,17,12.90
2011,08,23,05,18,13.00
2011,08,23,05,19,13.00
2011,08,23,05,20,13.00
2011,08,23,05,21,13.00
2011,08,23,05,22,13.00
2011,08,23,05,23,12.90
2011,08,23,05,24,12.90
2011,08,23,05,25,12.80
2011,08,23,05,26,12.80
2011,08,23,05,27,12.70
2011,08,23,05,28,12.70
2011,08,23,05,29,12.70
2011,08,23,05,30,12.70
2011,08,23,05,31,12.80
2011,08,23,05,32,12.80
2011,08,23,05,33,12.80
2011,08,23,05,34,12.80
2011,08,23,05,35,12.80
2011,08,23,05,36,12.80
2011,08,23,05,37,12.80
2011,08,23,05,38,12.80
2011,08,23,05,39,12.80
2011,08,23,05,40,12.80
2011,08,23,05,41,12.80
2011,08,23,05,42,12.80
2011,08,23,05,43,12.80
2011,08,23,05,44,12.80
2011,08,23,05,45,12.80
2011,08,23,05,46,12.80
2011,08,23,05,47,12.80
2011,08,23,05,48,12.80
2011,08,23,05,49,12.80
2011,08,23,05,50,12.90
2011,08,23,05,51,12.90
2011,08,23,05,52,12.90
2011,08,23,05,53,12.90
2011,08,23,05,54,12.90
2011,08,23,05,55,12.90
2011,08,23,05,56,12.90
2011,08,23,05,57,12.90
2011,08,23,05,58,12.90
2011,08,23,05,59,12.90
2011,08,23,06,00,12.90
2011,08,23,06,01,12.90
2011,08,23,06,02,12.90
2011,08,23,06,03,12.90
2011,08,23,06,04,13.00
2011,08,23,06,05,13.00
2011,08,23,06,06,13.00
2011,08,23,06,07,13.00
2011,08,23,06,08,13.00
2011,08,23,06,09,12.90
2011,08,23,06,10,12.80
2011,08,23,06,11,12.80
2011,08,23,06,12,12.70
2011,08,23,06,13,12.70
2011,08,23,06,14,12.60
2011,08,23,06,15,12.60
2011,08,23,06,16,12.60
2011,08,23,06,17,12.50
2011,08,23,06,18,12.50
2011,08,23,06,19,12.50
2011,08,23,06,20,12.50
2011,08,23,06,21,12.40
2011,08,23,06,22,12.50
2011,08,23,06,23,12.50
2011,08,23,06,24,12.50
2011,08,23,06,25,12.50
2011,08,23,06,26,12.50
2011,08,23,06,27,12.50
2011,08,23,06,28,12.40
2011,08,23,06,29,12.40
2011,08,23,06,30,12.30
2011,08,23,06,31,12.30
2011,08,23,06,32,12.20
2011,08,23,06,33,12.20
2011,08,23,06,34,12.20
2011,08,23,06,35,12.20
2011,08,23,06,36,12.20
2011,08,23,06,37,12.20
2011,08,23,06,38,12.30
2011,08,23,06,39,12.30
2011,08,23,06,40,12.30
2011,08,23,06,41,12.20
2011,08,23,06,42,12.20
2011,08,23,06,43,12.20
2011,08,23,06,44,12.20
2011,08,23,06,45,12.30
2011,08,23,06,46,12.30
2011,08,23,06,47,12.30
2011,08,23,06,48,12.30
2011,08,23,06,49,12.30
2011,08,23,06,50,12.20
2011,08,23,06,51,12.20
2011,08,23,06,52,12.20
2011,08,23,06,53,12.30
2011,08,23,06,54,12.30
2011,08,23,06,55,12.40
2011,08,23,06,56,12.40
2011,08,23,06,57,12.40
2011,08,23,06,58,12.50
2011,08,23,06,59,12.50
2011,08,23,07,00,12.50
2011,08,23,07,01,12.50
2011,08,23,07,02,12.50
2011,08,23,07,03,12.50
2011,08,23,07,04,12.40
2011,08,23,07,05,12.40
2011,08,23,07,06,12.40
2011,08,23,07,07,12.50
2011,08,23,07,08,12.60
2011,08,23,07,09,12.60
2011,08,23,07,10,12.60
2011,08,23,07,11,12.60
2011,08,23,07,12,12.60
2011,08,23,07,13,12.60
2011,08,23,07,14,12.60
2011,08,23,07,15,12.70
2011,08,23,07,16,12.70
2011,08,23,07,17,12.70
2011,08,23,07,18,12.70
2011,08,23,07,19,12.80
2011,08,23,07,20,12.80
2011,08,23,07,21,12.80
2011,08,23,07,22,12.80
2011,08,23,07,23,12.90
2011,08,23,07,24,12.90
2011,08,23,07,25,13.00
2011,08,23,07,26,13.10
2011,08,23,07,27,13.10
2011,08,23,07,28,13.20
2011,08,23,07,29,13.20
2011,08,23,07,30,13.20
2011,08,23,07,31,13.20
2011,08,23,07,32,13.20
2011,08,23,07,33,13.20
2011,08,23,07,34,13.20
2011,08,23,07,35,13.20
2011,08,23,07,36,13.20
2011,08,23,07,37,13.30
2011,08,23,07,38,13.30
2011,08,23,07,39,13.40
2011,08,23,07,40,13.40
2011,08,23,07,41,13.40
2011,08,23,07,42,13.50
2011,08,23,07,43,13.50
2011,08,23,07,44,13.60
2011,08,23,07,45,13.60
2011,08,23,07,46,13.60
2011,08,23,07,47,13.60
2011,08,23,07,48,13.70
2011,08,23,07,49,13.70
2011,08,23,07,50,13.70
2011,08,23,07,51,13.70
2011,08,23,07,52,13.70
2011,08,23,07,53,13.80
2011,08,23,07,54,13.80
2011,08,23,07,55,13.90
2011,08,23,07,56,13.90
2011,08,23,07,57,14.00
2011,08,23,07,58,14.10
2011,08,23,07,59,14.10
2011,08,23,08,00,14.20
2011,08,23,08,01,14.20
2011,08,23,08,02,14.30
2011,08,23,08,03,14.30
2011,08,23,08,04,14.40
2011,08,23,08,05,14.40
2011,08,23,08,06,14.50
2011,08,23,08,07,14.60
2011,08,23,08,08,14.70
2011,08,23,08,09,14.80
2011,08,23,08,10,15.00
2011,08,23,08,11,15.00
2011,08,23,08,12,15.10
2011,08,23,08,13,15.20
2011,08,23,08,14,15.30
2011,08,23,08,15,15.40
2011,08,23,08,16,15.50
2011,08,23,08,17,15.60
2011,08,23,08,18,15.70
2011,08,23,08,19,15.80
2011,08,23,08,20,15.90
2011,08,23,08,21,16.00
2011,08,23,08,22,16.10
2011,08,23,08,23,16.20
2011,08,23,08,24,16.20
2011,08,23,08,25,16.30
2011,08,23,08,26,16.30
2011,08,23,08,27,16.40
2011,08,23,08,28,16.40
2011,08,23,08,29,16.40
2011,08,23,08,30,16.50
2011,08,23,08,31,16.50
2011,08,23,08,32,16.60
2011,08,23,08,33,16.60
2011,08,23,08,34,16.60
2011,08,23,08,35,16.60
2011,08,23,08,36,16.70
2011,08,23,08,37,16.70
2011,08,23,08,38,16.70
2011,08,23,08,39,16.80
2011,08,23,08,40,16.80
2011,08,23,08,41,16.90
2011,08,23,08,42,16.90
2011,08,23,08,43,16.90
2011,08,23,08,44,16.90
2011,08,23,08,45,16.90
2011,08,23,08,46,16.90
2011,08,23,08,47,16.90
2011,08,23,08,48,16.80
2011,08,23,08,49,16.70
2011,08,23,08,50,16.60
2011,08,23,08,51,16.50
2011,08,23,08,52,16.40
2011,08,23,08,53,16.30
2011,08,23,08,54,16.30
2011,08,23,08,55,16.20
2011,08,23,08,56,16.20
2011,08,23,08,57,16.20
2011,08,23,08,58,16.20
2011,08,23,08,59,16.20
2011,08,23,09,00,16.20
2011,08,23,09,01,16.30
2011,08,23,09,02,16.30
2011,08,23,09,03,16.40
2011,08,23,09,04,16.40
2011,08,23,09,05,16.50
2011,08,23,09,06,16.60
2011,08,23,09,07,16.70
2011,08,23,09,08,16.80
2011,08,23,09,09,16.90
2011,08,23,09,10,17.00
2011,08,23,09,11,17.10
2011,08,23,09,12,17.20
2011,08,23,09,13,17.30
2011,08,23,09,14,17.30
2011,08,23,09,15,17.40
2011,08,23,09,16,17.40
2011,08,23,09,17,17.50
2011,08,23,09,18,17.50
2011,08,23,09,19,17.50
2011,08,23,09,20,17.60
2011,08,23,09,21,17.60
2011,08,23,09,22,17.60
2011,08,23,09,23,17.70
2011,08,23,09,24,17.80
2011,08,23,09,25,17.80
2011,08,23,09,26,17.90
2011,08,23,09,27,18.00
2011,08,23,09,28,18.10
2011,08,23,09,29,18.20
2011,08,23,09,30,18.40
2011,08,23,09,31,18.50
2011,08,23,09,32,18.70
2011,08,23,09,33,18.80
2011,08,23,09,34,18.90
2011,08,23,09,35,19.00
2011,08,23,09,36,19.10
2011,08,23,09,37,19.20
2011,08,23,09,38,19.20
2011,08,23,09,39,19.30
2011,08,23,09,40,19.30
2011,08,23,09,41,19.30
2011,08,23,09,42,19.10
2011,08,23,09,43,18.90
2011,08,23,09,44,18.70
2011,08,23,09,45,18.40
2011,08,23,09,46,18.00
2011,08,23,09,47,17.70
2011,08,23,09,48,17.40
2011,08,23,09,49,17.20
2011,08,23,09,50,17.00
2011,08,23,09,51,16.90
2011,08,23,09,52,16.80
2011,08,23,09,53,16.70
2011,08,23,09,54,16.70
2011,08,23,09,55,16.70
2011,08,23,09,56,16.70
2011,08,23,09,57,16.70
2011,08,23,09,58,16.80
2011,08,23,09,59,16.80
2011,08,23,10,00,16.90
2011,08,23,10,01,17.00
2011,08,23,10,02,17.10
2011,08,23,10,03,17.20
2011,08,23,10,04,17.30
2011,08,23,10,05,17.40
2011,08,23,10,06,17.40
2011,08,23,10,07,17.50
2011,08,23,10,08,17.60
2011,08,23,10,09,17.70
2011,08,23,10,10,17.70
2011,08,23,10,11,17.70
2011,08,23,10,12,17.70
2011,08,23,10,13,17.70
2011,08,23,10,14,17.80
2011,08,23,10,15,17.80
2011,08,23,10,16,17.70
2011,08,23,10,17,17.70
2011,08,23,10,18,17.60
2011,08,23,10,19,17.60
2011,08,23,10,20,17.60
2011,08,23,10,21,17.60
2011,08,23,10,22,17.70
2011,08,23,10,23,17.80
2011,08,23,10,24,17.80
2011,08,23,10,25,17.90
2011,08,23,10,26,17.90
2011,08,23,10,27,18.00
2011,08,23,10,28,18.10
2011,08,23,10,29,18.20
2011,08,23,10,30,18.30
2011,08,23,10,31,18.40
2011,08,23,10,32,18.50
2011,08,23,10,33,18.60
2011,08,23,10,34,18.60
2011,08,23,10,35,18.70
2011,08,23,10,36,18.70
2011,08,23,10,37,18.70
2011,08,23,10,38,18.70
2011,08,23,10,39,18.80
2011,08,23,10,40,18.90
2011,08,23,10,41,19.00
2011,08,23,10,42,19.20
2011,08,23,10,43,19.20
2011,08,23,10,44,19.30
2011,08,23,10,45,19.40
2011,08,23,10,46,19.50
2011,08,23,10,47,19.60
2011,08,23,10,48,19.60
2011,08,23,10,49,19.60
2011,08,23,10,50,19.70
2011,08,23,10,51,19.70
2011,08,23,10,52,19.80
2011,08,23,10,53,19.80
2011,08,23,10,54,19.80
2011,08,23,10,55,19.80
2011,08,23,10,56,19.70
2011,08,23,10,57,19.60
2011,08,23,10,58,19.40
2011,08,23,10,59,19.30
2011,08,23,11,00,19.20
2011,08,23,11,01,19.10
2011,08,23,11,02,19.10
2011,08,23,11,03,19.10
2011,08,23,11,04,19.00
2011,08,23,11,05,19.00
2011,08,23,11,06,18.90
2011,08,23,11,07,18.90
2011,08,23,11,08,18.90
2011,08,23,11,09,18.90
2011,08,23,11,10,19.00
2011,08,23,11,11,19.10
2011,08,23,11,12,19.00
2011,08,23,11,13,19.00
2011,08,23,11,14,18.90
2011,08,23,11,15,18.80
2011,08,23,11,16,18.80
2011,08,23,11,17,18.70
2011,08,23,11,18,18.70
2011,08,23,11,19,18.80
2011,08,23,11,20,18.90
2011,08,23,11,21,19.00
2011,08,23,11,22,19.20
2011,08,23,11,23,19.30
2011,08,23,11,24,19.40
2011,08,23,11,25,19.60
2011,08,23,11,26,19.60
2011,08,23,11,27,19.60
2011,08,23,11,28,19.60
2011,08,23,11,29,19.60
2011,08,23,11,30,19.50
2011,08,23,11,31,19.40
2011,08,23,11,32,19.30
2011,08,23,11,33,19.30
2011,08,23,11,34,19.30
2011,08,23,11,35,19.30
2011,08,23,11,36,19.20
2011,08,23,11,37,19.30
2011,08,23,11,38,19.30
2011,08,23,11,39,19.20
2011,08,23,11,40,19.10
2011,08,23,11,41,19.10
2011,08,23,11,42,19.10
2011,08,23,11,43,19.00
2011,08,23,11,44,19.00
2011,08,23,11,45,19.00
2011,08,23,11,46,19.00
2011,08,23,11,47,19.00
2011,08,23,11,48,18.90
2011,08,23,11,49,18.80
2011,08,23,11,50,18.70
2011,08,23,11,51,18.60
2011,08,23,11,52,18.60
2011,08,23,11,53,18.50
2011,08,23,11,54,18.40
2011,08,23,11,55,18.40
2011,08,23,11,56,18.40
2011,08,23,11,57,18.40
2011,08,23,11,58,18.40
2011,08,23,11,59,18.40
2011,08,23,12,00,18.40
2011,08,23,12,01,18.40
2011,08,23,12,02,18.40
2011,08,23,12,03,18.30
2011,08,23,12,04,18.30
2011,08,23,12,05,18.20
2011,08,23,12,06,18.20
2011,08,23,12,07,18.20
2011,08,23,12,08,18.20
2011,08,23,12,09,18.10
2011,08,23,12,10,18.00
2011,08,23,12,11,18.00
2011,08,23,12,12,18.00
2011,08,23,12,13,18.00
2011,08,23,12,14,18.00
2011,08,23,12,15,18.00
2011,08,23,12,16,18.10
2011,08,23,12,17,18.10
2011,08,23,12,18,18.20
2011,08,23,12,19,18.30
2011,08,23,12,20,18.30
2011,08,23,12,21,18.30
2011,08,23,12,22,18.30
2011,08,23,12,23,18.30
2011,08,23,12,24,18.30
2011,08,23,12,25,18.20
2011,08,23,12,26,18.20
2011,08,23,12,27,18.20
2011,08,23,12,28,18.20
2011,08,23,12,29,18.30
2011,08,23,12,30,18.40
2011,08,23,12,31,18.40
2011,08,23,12,32,18.50
2011,08,23,12,33,18.60
2011,08,23,12,34,18.70
2011,08,23,12,35,18.70
2011,08,23,12,36,18.80
2011,08,23,12,37,18.90
2011,08,23,12,38,19.00
2011,08,23,12,39,19.10
2011,08,23,12,40,19.20
2011,08,23,12,41,19.30
2011,08,23,12,42,19.50
2011,08,23,12,43,19.60
2011,08,23,12,44,19.60
2011,08,23,12,45,19.60
2011,08,23,12,46,19.60
2011,08,23,12,47,19.60
2011,08,23,12,48,19.60
2011,08,23,12,49,19.50
2011,08,23,12,50,19.50
2011,08,23,12,51,19.40
2011,08,23,12,52,19.40
2011,08,23,12,53,19.40
2011,08,23,12,54,19.40
2011,08,23,12,55,19.40
2011,08,23,12,56,19.40
2011,08,23,12,57,19.40
2011,08,23,12,58,19.30
2011,08,23,12,59,19.30
2011,08,23,13,00,19.30
2011,08,23,13,01,19.20
2011,08,23,13,02,19.20
2011,08,23,13,03,19.20
2011,08,23,13,04,19.20
2011,08,23,13,05,19.20
2011,08,23,13,06,19.20
2011,08,23,13,07,19.20
2011,08,23,13,08,19.20
2011,08,23,13,09,19.20
2011,08,23,13,10,19.20
2011,08,23,13,11,19.30
2011,08,23,13,12,19.30
2011,08,23,13,13,19.40
2011,08,23,13,14,19.40
2011,08,23,13,15,19.40
2011,08,23,13,16,19.50
2011,08,23,13,17,19.40
2011,08,23,13,18,19.30
2011,08,23,13,19,19.20
2011,08,23,13,20,19.00
2011,08,23,13,21,18.90
2011,08,23,13,22,18.90
2011,08,23,13,23,18.80
2011,08,23,13,24,18.80
2011,08,23,13,25,18.70
2011,08,23,13,26,18.80
2011,08,23,13,27,18.80
2011,08,23,13,28,18.80
2011,08,23,13,29,18.80
2011,08,23,13,30,18.90
2011,08,23,13,31,18.90
2011,08,23,13,32,18.80
2011,08,23,13,33,18.80
2011,08,23,13,34,18.80
2011,08,23,13,35,18.90
2011,08,23,13,36,18.90
2011,08,23,13,37,18.80
2011,08,23,13,38,18.70
2011,08,23,13,39,18.70
2011,08,23,13,40,18.70
2011,08,23,13,41,18.60
2011,08,23,13,42,18.70
2011,08,23,13,43,18.70
2011,08,23,13,44,18.90
2011,08,23,13,45,18.90
2011,08,23,13,46,19.00
2011,08,23,13,47,19.10
2011,08,23,13,48,19.20
2011,08,23,13,49,19.20
2011,08,23,13,50,19.20
2011,08,23,13,51,19.10
2011,08,23,13,52,19.10
2011,08,23,13,53,19.20
2011,08,23,13,54,19.10
2011,08,23,13,55,19.20
2011,08,23,13,56,19.20
2011,08,23,13,57,19.20
2011,08,23,13,58,19.30
2011,08,23,13,59,19.30
2011,08,23,14,00,19.30
2011,08,23,14,01,19.30
2011,08,23,14,02,19.20
2011,08,23,14,03,19.20
2011,08,23,14,04,19.20
2011,08,23,14,05,19.20
2011,08,23,14,06,19.30
2011,08,23,14,07,19.30
2011,08,23,14,08,19.40
2011,08,23,14,09,19.50
2011,08,23,14,10,19.60
2011,08,23,14,11,19.60
2011,08,23,14,12,19.70
2011,08,23,14,13,19.80
2011,08,23,14,14,19.80
2011,08,23,14,15,19.90
2011,08,23,14,16,19.90
2011,08,23,14,17,19.90
2011,08,23,14,18,19.90
2011,08,23,14,19,20.00
2011,08,23,14,20,20.00
2011,08,23,14,21,19.90
2011,08,23,14,22,19.80
2011,08,23,14,23,19.80
2011,08,23,14,24,19.80
2011,08,23,14,25,19.70
2011,08,23,14,26,19.70
2011,08,23,14,27,19.70
2011,08,23,14,28,19.70
2011,08,23,14,29,19.80
2011,08,23,14,30,19.80
2011,08,23,14,31,19.90
2011,08,23,14,32,19.90
2011,08,23,14,33,19.90
2011,08,23,14,34,19.90
2011,08,23,14,35,19.80
2011,08,23,14,36,19.70
2011,08,23,14,37,19.70
2011,08,23,14,38,19.80
2011,08,23,14,39,19.80
2011,08,23,14,40,19.80
2011,08,23,14,41,19.80
2011,08,23,14,42,19.70
2011,08,23,14,43,19.70
2011,08,23,14,44,19.70
2011,08,23,14,45,19.80
2011,08,23,14,46,19.80
2011,08,23,14,47,19.70
2011,08,23,14,48,19.70
2011,08,23,14,49,19.80
2011,08,23,14,50,19.80
2011,08,23,14,51,19.80
2011,08,23,14,52,19.90
2011,08,23,14,53,19.90
2011,08,23,14,54,19.80
2011,08,23,14,55,19.80
2011,08,23,14,56,19.90
2011,08,23,14,57,19.90
2011,08,23,14,58,19.90
2011,08,23,14,59,19.90
2011,08,23,15,00,19.90
2011,08,23,15,01,20.00
2011,08,23,15,02,20.10
2011,08,23,15,03,20.10
2011,08,23,15,04,20.20
2011,08,23,15,05,20.20
2011,08,23,15,06,20.10
2011,08,23,15,07,20.10
2011,08,23,15,08,20.20
2011,08,23,15,09,20.10
2011,08,23,15,10,20.10
2011,08,23,15,11,20.20
2011,08,23,15,12,20.20
2011,08,23,15,13,20.20
2011,08,23,15,14,20.20
2011,08,23,15,15,20.30
2011,08,23,15,16,20.20
2011,08,23,15,17,20.20
2011,08,23,15,18,20.10
2011,08,23,15,19,20.00
2011,08,23,15,20,19.90
2011,08,23,15,21,19.80
2011,08,23,15,22,19.80
2011,08,23,15,23,19.70
2011,08,23,15,24,19.80
2011,08,23,15,25,19.80
2011,08,23,15,26,19.90
2011,08,23,15,27,20.10
2011,08,23,15,28,20.20
2011,08,23,15,29,20.30
2011,08,23,15,30,20.30
2011,08,23,15,31,20.40
2011,08,23,15,32,20.40
2011,08,23,15,33,20.40
2011,08,23,15,34,20.30
2011,08,23,15,35,20.30
2011,08,23,15,36,20.40
2011,08,23,15,37,20.40
2011,08,23,15,38,20.40
2011,08,23,15,39,20.40
2011,08,23,15,40,20.40
2011,08,23,15,41,20.40
2011,08,23,15,42,20.60
2011,08,23,15,43,20.70
2011,08,23,15,44,20.80
2011,08,23,15,45,20.80
2011,08,23,15,46,20.80
2011,08,23,15,47,20.70
2011,08,23,15,48,20.50
2011,08,23,15,49,20.40
2011,08,23,15,50,20.30
2011,08,23,15,51,20.20
2011,08,23,15,52,20.20
2011,08,23,15,53,20.10
2011,08,23,15,54,20.00
2011,08,23,15,55,20.00
2011,08,23,15,56,19.90
2011,08,23,15,57,19.90
2011,08,23,15,58,19.90
2011,08,23,15,59,19.80
2011,08,23,16,00,19.80
2011,08,23,16,01,19.90
2011,08,23,16,02,19.90
2011,08,23,16,03,20.00
2011,08,23,16,04,20.20
2011,08,23,16,05,20.20
2011,08,23,16,06,20.20
2011,08,23,16,07,20.20
2011,08,23,16,08,20.00
2011,08,23,16,09,19.90
2011,08,23,16,10,19.80
2011,08,23,16,11,19.80
2011,08,23,16,12,19.70
2011,08,23,16,13,19.60
2011,08,23,16,14,19.60
2011,08,23,16,15,19.60
2011,08,23,16,16,19.60
2011,08,23,16,17,19.70
2011,08,23,16,18,19.70
2011,08,23,16,19,19.70
2011,08,23,16,20,19.80
2011,08,23,16,21,19.90
2011,08,23,16,22,19.90
2011,08,23,16,23,19.90
2011,08,23,16,24,19.90
2011,08,23,16,25,19.90
2011,08,23,16,26,19.90
2011,08,23,16,27,20.00
2011,08,23,16,28,20.00
2011,08,23,16,29,20.10
2011,08,23,16,30,20.10
2011,08,23,16,31,20.10
2011,08,23,16,32,20.10
2011,08,23,16,33,20.10
2011,08,23,16,34,20.10
2011,08,23,16,35,20.10
2011,08,23,16,36,20.10
2011,08,23,16,37,20.00
2011,08,23,16,38,20.00
2011,08,23,16,39,20.00
2011,08,23,16,40,19.90
2011,08,23,16,41,19.80
2011,08,23,16,42,19.80
2011,08,23,16,43,19.80
2011,08,23,16,44,19.80
2011,08,23,16,45,19.70
2011,08,23,16,46,19.70
2011,08,23,16,47,19.70
2011,08,23,16,48,19.70
2011,08,23,16,49,19.70
2011,08,23,16,50,19.80
2011,08,23,16,51,19.80
2011,08,23,16,52,19.80
2011,08,23,16,53,19.80
2011,08,23,16,54,19.80
2011,08,23,16,55,19.80
2011,08,23,16,56,19.80
2011,08,23,16,57,19.80
2011,08,23,16,58,19.80
2011,08,23,16,59,19.90
2011,08,23,17,00,19.90
2011,08,23,17,01,19.80
2011,08,23,17,02,19.80
2011,08,23,17,03,19.80
2011,08,23,17,04,19.80
2011,08,23,17,05,19.80
2011,08,23,17,06,19.80
2011,08,23,17,07,19.80
2011,08,23,17,08,19.80
2011,08,23,17,09,19.80
2011,08,23,17,10,19.80
2011,08,23,17,11,19.90
2011,08,23,17,12,19.90
2011,08,23,17,13,19.90
2011,08,23,17,14,19.90
2011,08,23,17,15,19.90
2011,08,23,17,16,19.90
2011,08,23,17,17,19.90
2011,08,23,17,18,20.00
2011,08,23,17,19,20.00